Time,TemperatureF,DewpointF,PressureIn,WindDirection,WindDirectionDegrees,WindSpeedMPH,WindSpeedGustMPH,Humidity,HourlyPrecipIn,Conditions,Clouds,dailyrainin,SolarRadiationWatts/m^2,SoftwareType,DateUTC
2013-06-30 00:04:00,70.8,67.7,29.57,South,172,0.0,1.0,90,0.00,,,0.00,0,Wunderground v.1.15,2013-06-30 04:04:00,
2013-06-30 00:14:00,70.6,67.5,29.58,South,172,0.0,1.0,90,0.00,,,0.00,0,Wunderground v.1.15,2013-06-30 04:14:00,
2013-06-30 00:19:00,70.5,67.7,29.58,South,172,0.0,1.0,91,0.00,,,0.00,0,Wunderground v.1.15,2013-06-30 04:19:00,
2013-06-30 00:24:00,70.5,67.7,29.58,South,180,0.0,1.0,91,0.00,,,0.00,0,Wunderground v.1.15,2013-06-30 04:24:00,
2013-06-30 00:29:00,70.4,67.6,29.58,South,171,0.0,1.0,91,0.00,,,0.00,0,Wunderground v.1.15,2013-06-30 04:29:00,
2013-06-30 00:34:00,70.3,67.5,29.58,SSW,206,0.0,1.0,91,0.00,,,0.00,0,Wunderground v.1.15,2013-06-30 04:34:00,
2013-06-30 00:39:00,70.2,67.4,29.58,SSW,195,0.0,1.0,91,0.00,,,0.00,0,Wunderground v.1.15,2013-06-30 04:39:00,
2013-06-30 00:44:00,70.2,67.4,29.58,SSW,195,0.0,1.0,91,0.00,,,0.00,0,Wunderground v.1.15,2013-06-30 04:44:00,
2013-06-30 00:49:00,70.1,67.7,29.58,SW,232,0.0,1.0,92,0.00,,,0.00,0,Wunderground v.1.15,2013-06-30 04:49:00,
2013-06-30 00:54:00,70.1,67.7,29.58,SSW,204,1.0,1.0,92,0.00,,,0.00,0,Wunderground v.1.15,2013-06-30 04:54:00,
2013-06-30 01:04:00,70.1,67.7,29.58,SSE,163,0.0,1.0,92,0.00,,,0.00,0,Wunderground v.1.15,2013-06-30 05:04:00,
2013-06-30 01:14:00,70.0,67.6,29.58,SSE,163,0.0,1.0,92,0.00,,,0.00,0,Wunderground v.1.15,2013-06-30 05:14:00,
2013-06-30 01:19:00,70.0,67.6,29.59,South,174,0.0,1.0,92,0.00,,,0.00,0,Wunderground v.1.15,2013-06-30 05:19:00,
2013-06-30 01:24:00,69.9,67.5,29.58,South,174,0.0,1.0,92,0.00,,,0.00,0,Wunderground v.1.15,2013-06-30 05:24:00,
2013-06-30 01:29:00,69.9,67.5,29.58,South,174,0.0,1.0,92,0.00,,,0.00,0,Wunderground v.1.15,2013-06-30 05:29:00,
2013-06-30 01:39:00,69.7,67.3,29.58,SSW,203,0.0,1.0,92,0.00,,,0.00,0,Wunderground v.1.15,2013-06-30 05:39:00,
2013-06-30 01:44:00,69.7,67.3,29.58,SSW,203,0.0,1.0,92,0.00,,,0.00,0,Wunderground v.1.15,2013-06-30 05:44:00,
2013-06-30 01:49:00,69.6,67.2,29.58,SSW,203,0.0,1.0,92,0.00,,,0.00,0,Wunderground v.1.15,2013-06-30 05:49:00,
2013-06-30 01:54:00,69.6,67.5,29.58,SSW,205,0.0,1.0,93,0.00,,,0.00,0,Wunderground v.1.15,2013-06-30 05:54:00,
2013-06-30 01:59:00,69.5,67.4,29.58,SSW,205,0.0,1.0,93,0.00,,,0.00,0,Wunderground v.1.15,2013-06-30 05:59:00,
2013-06-30 02:04:00,69.5,67.4,29.58,SSW,205,0.0,1.0,93,0.00,,,0.00,0,Wunderground v.1.15,2013-06-30 06:04:00,
2013-06-30 02:14:00,69.4,67.3,29.58,SSW,205,0.0,1.0,93,0.00,,,0.00,0,Wunderground v.1.15,2013-06-30 06:14:00,
2013-06-30 02:19:00,69.3,67.2,29.58,SSW,205,0.0,1.0,93,0.00,,,0.00,0,Wunderground v.1.15,2013-06-30 06:19:00,
2013-06-30 02:24:00,69.3,67.2,29.58,South,184,0.0,1.0,93,0.00,,,0.00,0,Wunderground v.1.15,2013-06-30 06:24:00,
2013-06-30 02:29:00,69.2,67.1,29.58,South,184,0.0,1.0,93,0.00,,,0.00,0,Wunderground v.1.15,2013-06-30 06:29:00,
2013-06-30 02:34:00,69.2,67.1,29.58,SSW,207,0.0,1.0,93,0.00,,,0.00,0,Wunderground v.1.15,2013-06-30 06:34:00,
2013-06-30 02:39:00,69.2,67.1,29.58,SSW,210,0.0,1.0,93,0.00,,,0.00,0,Wunderground v.1.15,2013-06-30 06:39:00,
2013-06-30 02:44:00,69.2,67.4,29.58,SSW,210,0.0,1.0,94,0.00,,,0.00,0,Wunderground v.1.15,2013-06-30 06:44:00,
2013-06-30 02:49:00,69.1,67.3,29.59,SSW,208,0.0,1.0,94,0.00,,,0.00,0,Wunderground v.1.15,2013-06-30 06:49:00,
2013-06-30 02:59:00,69.1,67.3,29.59,SSW,208,0.0,1.0,94,0.00,,,0.00,0,Wunderground v.1.15,2013-06-30 06:59:00,
2013-06-30 03:04:00,69.1,67.3,29.59,SSW,208,0.0,1.0,94,0.00,,,0.00,0,Wunderground v.1.15,2013-06-30 07:04:00,
2013-06-30 03:14:00,69.0,67.2,29.59,SSW,208,0.0,1.0,94,0.00,,,0.00,0,Wunderground v.1.15,2013-06-30 07:14:00,
2013-06-30 03:19:00,69.0,67.2,29.59,SSW,208,0.0,1.0,94,0.00,,,0.00,0,Wunderground v.1.15,2013-06-30 07:19:00,
2013-06-30 03:24:00,69.0,67.2,29.59,SSW,208,0.0,1.0,94,0.00,,,0.00,0,Wunderground v.1.15,2013-06-30 07:24:00,
2013-06-30 03:34:00,68.9,67.1,29.59,SSW,208,0.0,1.0,94,0.00,,,0.00,0,Wunderground v.1.15,2013-06-30 07:34:00,
2013-06-30 03:39:00,68.9,67.1,29.59,SSW,208,0.0,1.0,94,0.00,,,0.00,0,Wunderground v.1.15,2013-06-30 07:39:00,
2013-06-30 03:44:00,68.8,67.0,29.59,SSW,208,0.0,1.0,94,0.00,,,0.00,0,Wunderground v.1.15,2013-06-30 07:44:00,
2013-06-30 03:49:00,68.8,67.3,29.59,SSW,208,0.0,1.0,95,0.00,,,0.00,0,Wunderground v.1.15,2013-06-30 07:49:00,
2013-06-30 03:59:00,68.7,67.2,29.59,WSW,244,0.0,1.0,95,0.00,,,0.00,0,Wunderground v.1.15,2013-06-30 07:59:00,
2013-06-30 04:04:00,68.6,67.1,29.59,WSW,244,0.0,1.0,95,0.00,,,0.00,0,Wunderground v.1.15,2013-06-30 08:04:00,
2013-06-30 04:14:00,68.5,67.0,29.60,WSW,244,0.0,1.0,95,0.00,,,0.00,0,Wunderground v.1.15,2013-06-30 08:14:00,
2013-06-30 04:19:00,68.4,66.9,29.60,WSW,244,0.0,1.0,95,0.00,,,0.00,0,Wunderground v.1.15,2013-06-30 08:19:00,
2013-06-30 04:24:00,68.3,66.8,29.60,WSW,244,0.0,1.0,95,0.00,,,0.00,0,Wunderground v.1.15,2013-06-30 08:24:00,
2013-06-30 04:29:00,68.3,66.8,29.60,WSW,244,0.0,1.0,95,0.00,,,0.00,0,Wunderground v.1.15,2013-06-30 08:29:00,
2013-06-30 04:34:00,68.2,66.7,29.60,WSW,244,0.0,1.0,95,0.00,,,0.00,0,Wunderground v.1.15,2013-06-30 08:34:00,
2013-06-30 04:39:00,68.1,66.6,29.60,WSW,244,0.0,1.0,95,0.00,,,0.00,0,Wunderground v.1.15,2013-06-30 08:39:00,
2013-06-30 04:44:00,68.0,66.5,29.60,WSW,244,0.0,1.0,95,0.00,,,0.00,0,Wunderground v.1.15,2013-06-30 08:44:00,
2013-06-30 04:49:00,67.8,66.3,29.60,WSW,244,0.0,1.0,95,0.00,,,0.00,0,Wunderground v.1.15,2013-06-30 08:49:00,
2013-06-30 04:59:00,67.4,65.9,29.61,WSW,244,0.0,1.0,95,0.00,,,0.00,0,Wunderground v.1.15,2013-06-30 08:59:00,
2013-06-30 05:04:00,67.5,66.3,29.61,WSW,244,0.0,1.0,96,0.00,,,0.00,0,Wunderground v.1.15,2013-06-30 09:04:00,
2013-06-30 05:14:00,67.4,66.2,29.61,WSW,244,0.0,1.0,96,0.00,,,0.00,0,Wunderground v.1.15,2013-06-30 09:14:00,
2013-06-30 05:19:00,67.4,66.2,29.61,WSW,244,0.0,1.0,96,0.00,,,0.00,5,Wunderground v.1.15,2013-06-30 09:19:00,
2013-06-30 05:24:00,67.4,66.2,29.61,WSW,244,0.0,1.0,96,0.00,,,0.00,11,Wunderground v.1.15,2013-06-30 09:24:00,
2013-06-30 05:29:00,67.4,66.2,29.61,WSW,244,0.0,1.0,96,0.00,,,0.00,18,Wunderground v.1.15,2013-06-30 09:29:00,
2013-06-30 05:39:00,67.4,66.2,29.62,WSW,244,0.0,1.0,96,0.00,,,0.00,21,Wunderground v.1.15,2013-06-30 09:39:00,
2013-06-30 05:44:00,67.4,66.2,29.62,WSW,244,0.0,1.0,96,0.00,,,0.00,23,Wunderground v.1.15,2013-06-30 09:44:00,
2013-06-30 05:49:00,67.6,66.4,29.62,WSW,244,0.0,1.0,96,0.00,,,0.00,26,Wunderground v.1.15,2013-06-30 09:49:00,
2013-06-30 05:54:00,67.7,66.8,29.63,WSW,244,0.0,1.0,97,0.00,,,0.00,28,Wunderground v.1.15,2013-06-30 09:54:00,
2013-06-30 05:59:00,67.7,66.8,29.63,WSW,244,0.0,1.0,97,0.00,,,0.00,37,Wunderground v.1.15,2013-06-30 09:59:00,
2013-06-30 06:04:00,67.8,66.9,29.63,WSW,244,0.0,1.0,97,0.00,,,0.00,44,Wunderground v.1.15,2013-06-30 10:04:00,
2013-06-30 06:14:00,68.0,67.1,29.63,WSW,244,0.0,1.0,97,0.00,,,0.00,49,Wunderground v.1.15,2013-06-30 10:14:00,
2013-06-30 06:19:00,68.1,67.2,29.63,WSW,244,0.0,1.0,97,0.00,,,0.00,51,Wunderground v.1.15,2013-06-30 10:19:00,
2013-06-30 06:29:00,68.3,67.4,29.64,WSW,244,0.0,1.0,97,0.00,,,0.00,56,Wunderground v.1.15,2013-06-30 10:29:00,
2013-06-30 06:34:00,68.4,67.5,29.64,WSW,244,0.0,1.0,97,0.00,,,0.00,63,Wunderground v.1.15,2013-06-30 10:34:00,
2013-06-30 06:39:00,68.5,67.6,29.64,WSW,244,0.0,1.0,97,0.00,,,0.00,69,Wunderground v.1.15,2013-06-30 10:39:00,
2013-06-30 06:44:00,68.7,67.8,29.65,WSW,244,0.0,1.0,97,0.00,,,0.00,70,Wunderground v.1.15,2013-06-30 10:44:00,
2013-06-30 06:49:00,68.9,68.0,29.65,WSW,244,0.0,1.0,97,0.00,,,0.00,70,Wunderground v.1.15,2013-06-30 10:49:00,
2013-06-30 06:54:00,69.0,68.1,29.65,WSW,244,0.0,1.0,97,0.00,,,0.00,86,Wunderground v.1.15,2013-06-30 10:54:00,
2013-06-30 06:59:00,69.2,68.3,29.65,SSW,208,0.0,1.0,97,0.00,,,0.00,114,Wunderground v.1.15,2013-06-30 10:59:00,
2013-06-30 07:14:00,70.1,69.2,29.66,SSW,199,0.0,1.0,97,0.00,,,0.00,190,Wunderground v.1.15,2013-06-30 11:14:00,
2013-06-30 07:19:00,70.5,69.3,29.66,WSW,256,1.0,1.0,96,0.00,,,0.00,202,Wunderground v.1.15,2013-06-30 11:19:00,